Location: Tel Aviv
(32.0670°N, 34.7670°E)
Time: 01:03:10
(UTC+03:00)

TIGRISAT - Visible Passes

Search period start: 01 April 2023 00:00
Search period end: 11 April 2023 00:00
Orbit: 601 x 681 km, 97.7° (Epoch: 31 March)

Date Brightness Start Highest point End Pass type
(mag) Time Alt. Az. Time Alt. Az. Time Alt. Az.
01 Apr ? 04:27:11 10° E 04:28:37 11° ENE 04:30:05 10° NE visible
01 Apr ? 06:00:24 10° S 06:04:39 51° W 06:09:01 10° NNW visible
01 Apr ? 19:33:41 10° NW 19:36:00 14° WNW 19:38:19 10° W visible
02 Apr ? 04:48:58 10° ESE 04:52:18 21° ENE 04:55:41 10° NNE visible
03 Apr ? 05:11:56 10° SE 05:16:03 40° ENE 05:20:16 10° N visible
04 Apr ? 05:35:29 10° SSE 05:39:52 79° ENE 05:44:25 10° N visible
05 Apr ? 04:26:16 10° E 04:27:47 12° ENE 04:29:18 10° NE visible
05 Apr ? 05:59:29 10° S 06:03:47 52° W 06:08:13 10° NNW visible
05 Apr ? 19:32:51 10° NW 19:35:10 14° WNW 19:37:27 10° W visible
06 Apr ? 04:48:03 10° ESE 04:51:25 22° ENE 04:54:52 10° NNE visible
07 Apr ? 05:11:00 10° SE 05:15:09 40° ENE 05:19:24 10° N visible
08 Apr ? 05:34:29 10° SSE 05:38:57 79° ENE 05:43:31 10° N visible
09 Apr ? 04:25:14 10° E 04:26:49 12° ENE 04:28:24 10° NE visible
09 Apr ? 19:31:54 10° NW 19:34:12 14° WNW 19:36:28 10° W visible
10 Apr ? 04:47:01 10° ESE 04:50:26 22° ENE 04:53:54 10° NNE visible
